Theta_e
319 319 317 316 315 314 310 308 308 307 308 308 309 311 312 313 315 325 333 322 324 321 321 324 325 326 325 328 329 332 338 342 347 350 346 338 337 339 342 342 340 341 348 345 341
318 318 319 318 317 316 315 311 309 308 308 308 308 310 312 312 317 327 323 321 317 317 325 325 325 326 326 328 330 334 338 344 344 342 338 333 332 333 338 345 347 343 344 342 342
314 314 317 318 319 317 316 315 313 311 309 308 308 309 311 311 326 327 322 319 316 315 326 326 324 325 326 327 329 334 337 339 343 335 333 333 333 334 339 345 350 347 347 344 342
310 312 313 314 314 318 319 316 315 313 312 309 308 308 311 317 328 324 319 319 316 316 322 324 324 325 325 326 328 331 334 336 337 334 333 333 332 335 340 342 347 344 346 344 342
308 309 311 313 315 313 315 320 318 315 314 311 309 308 310 324 325 317 316 321 318 323 326 324 323 324 325 326 327 328 332 334 336 336 334 333 333 337 342 342 343 344 344 345 343
309 308 308 308 309 311 311 316 320 319 315 313 309 308 319 321 322 323 325 323 324 326 324 324 323 324 324 325 326 328 330 332 334 337 336 333 333 337 342 344 346 344 344 343 343
311 310 309 308 307 308 309 310 313 320 318 313 308 311 317 318 321 320 321 327 329 329 327 325 324 323 323 323 326 327 327 328 329 336 336 334 334 336 342 344 346 346 343 342 342
311 311 310 310 308 307 307 309 310 317 319 312 310 316 319 320 321 321 321 321 324 326 326 326 324 324 323 324 326 326 327 327 329 333 334 333 338 342 340 344 346 348 345 343 340
310 310 310 309 308 307 307 311 313 317 316 312 316 321 322 321 321 321 320 320 321 323 324 324 323 323 325 322 324 325 325 325 328 334 335 333 341 340 339 340 346 348 348 345 342
310 310 310 309 308 307 310 316 314 318 315 319 320 323 325 322 321 320 319 320 321 324 323 323 322 323 324 323 324 325 324 325 328 333 334 333 339 340 336 336 340 347 348 347 344
308 310 309 309 307 309 314 320 323 323 318 325 326 324 324 322 322 321 321 322 322 324 322 323 322 323 325 325 326 326 326 325 327 334 333 333 335 335 332 334 336 340 347 348 350
306 309 309 309 308 313 317 323 318 316 317 321 324 324 324 323 321 322 322 321 322 323 323 322 322 323 326 326 326 326 326 327 328 333 333 334 334 337 334 340 343 343 342 345 348
305 307 310 308 314 319 319 318 315 315 318 319 319 322 323 323 322 323 321 321 322 323 324 322 323 323 324 326 326 326 326 327 328 332 331 332 333 337 337 343 346 346 346 346 349
305 306 310 311 317 321 320 316 317 316 321 321 321 321 320 322 323 323 322 322 321 322 323 323 323 324 324 325 326 326 326 327 328 329 331 331 331 337 338 343 346 345 345 347 348
305 305 309 311 315 321 319 318 317 318 329 323 323 322 322 321 323 323 322 322 322 323 324 323 323 322 324 324 325 325 327 326 326 326 327 331 330 331 336 348 346 346 346 347 348
306 305 307 317 318 320 318 319 318 325 326 322 322 321 322 322 321 322 322 322 322 322 324 325 325 323 324 325 325 325 325 326 326 326 327 327 328 330 341 348 348 346 352 351 351
308 306 307 313 319 316 319 321 321 321 322 322 322 321 321 322 322 322 323 321 322 322 325 325 325 325 325 324 325 324 325 326 326 327 326 329 328 340 347 349 347 352 352 350 350
309 309 312 316 316 316 321 322 321 320 323 322 323 323 323 323 321 323 322 322 321 322 324 326 326 324 325 326 325 324 327 326 330 328 327 328 330 353 349 346 349 351 350 349 349
312 317 318 318 316 316 322 326 320 318 318 320 322 323 324 323 323 322 323 323 321 322 327 326 327 325 326 325 325 324 325 325 328 330 331 333 355 351 348 349 352 350 350 348 348
313 318 319 316 317 318 322 323 323 320 319 317 319 320 321 324 326 325 323 323 322 322 324 327 330 327 326 325 324 325 326 327 328 334 336 343 356 358 351 354 353 352 351 348 346
315 321 319 317 317 319 322 321 320 319 319 318 318 319 321 324 327 329 329 322 322 322 323 327 333 329 327 326 325 324 326 327 331 333 335 347 345 346 351 352 353 350 350 348 345
319 322 318 316 320 321 321 320 317 318 318 318 319 317 318 323 326 328 329 328 323 323 323 326 331 333 329 327 326 325 326 332 333 338 334 348 351 349 351 353 352 350 348 346 345
322 321 317 316 320 320 319 319 318 318 318 318 318 319 318 318 325 329 328 326 325 324 326 328 333 333 332 328 327 326 326 330 339 343 342 337 345 351 336 340 352 349 347 347 344
320 321 321 318 317 318 320 320 319 317 317 316 317 317 318 318 324 329 328 329 327 325 330 333 339 336 333 330 327 326 327 327 334 339 333 336 350 358 339 349 353 349 347 345 344
318 321 320 320 319 319 319 319 318 318 316 315 316 316 318 323 327 329 328 330 330 330 332 334 340 332 331 333 327 326 326 329 329 332 333 334 343 349 357 353 349 347 346 344 343
319 319 317 319 318 318 318 319 319 317 316 316 318 318 318 322 321 326 327 328 329 330 331 337 336 334 333 334 330 329 329 329 328 330 331 336 361 345 338 353 351 346 344 342 340
314 314 316 317 318 318 319 319 319 319 318 317 318 318 319 319 321 323 324 324 325 329 335 341 334 341 336 335 333 333 330 328 328 328 330 332 350 345 345 353 351 348 344 341 338
Wind_Speed
15 15 14 16 18 18 19 20 22 23 24 25 27 28 30 34 38 9 6 2 3 5 9 7 11 15 14 16 17 15 13 6 7 20 14 3 14 15 8 14 13 11 18 20 23
18 17 16 16 18 20 20 20 21 23 24 25 26 28 29 32 28 19 2 3 5 7 7 13 11 11 11 13 13 11 13 6 11 12 5 12 4 11 1 19 16 15 20 23 23
19 19 19 19 19 20 21 21 21 22 23 24 25 27 28 31 12 6 4 0 4 11 13 16 13 11 12 14 14 13 14 4 22 12 9 6 12 6 7 12 19 16 18 17 19
18 19 19 20 22 21 21 22 21 21 22 23 24 27 27 15 4 4 4 3 5 7 11 14 12 13 13 15 16 14 15 12 4 7 4 9 6 4 11 13 19 14 18 16 15
18 18 18 19 20 22 22 22 22 20 22 23 22 23 18 10 11 6 3 5 7 6 12 12 13 13 15 16 17 14 13 15 9 3 6 5 5 6 17 15 17 17 16 15 14
18 21 21 22 23 22 23 21 21 20 21 21 20 19 7 14 1 5 8 9 11 13 13 13 10 13 14 17 18 15 10 16 10 8 9 8 6 8 14 16 17 15 15 13 13
18 19 20 21 23 23 23 22 21 19 20 19 18 10 10 19 4 4 8 12 13 14 11 12 13 8 11 14 16 18 16 11 16 12 8 10 9 9 15 16 14 16 14 13 13
20 21 22 23 23 24 23 22 21 19 18 17 14 4 8 15 13 20 13 13 11 11 11 14 9 13 14 13 13 13 15 13 16 15 13 7 6 18 12 17 16 15 14 12 13
22 23 23 24 25 24 25 25 20 15 16 10 7 9 11 4 15 15 15 16 14 12 11 11 11 13 14 15 12 13 13 18 19 19 15 15 12 3 8 9 17 16 13 13 12
22 24 25 24 24 24 26 27 12 17 9 8 17 9 18 14 15 19 18 19 13 12 11 11 9 13 14 14 14 13 15 16 17 19 18 13 14 21 14 12 9 16 15 14 13
24 25 26 26 24 19 26 11 4 6 11 14 8 12 11 15 4 9 13 14 17 12 15 16 13 16 19 20 19 21 16 18 17 14 18 16 12 16 10 9 6 9 15 15 15
22 24 26 24 20 13 16 8 8 9 12 17 25 23 25 13 12 13 16 13 18 19 18 16 18 20 19 20 19 20 20 14 16 10 8 13 13 5 12 10 9 3 2 9 15
21 22 24 23 16 12 7 8 10 13 7 12 23 25 22 21 15 15 21 19 16 21 20 20 20 21 22 19 20 19 18 14 16 8 5 6 13 9 13 13 10 3 2 2 1
21 20 21 22 10 12 3 9 10 10 6 6 10 11 23 21 24 22 20 18 20 22 22 21 22 22 20 20 18 16 13 17 16 14 10 14 14 15 14 13 11 8 2 4 2
20 19 18 10 14 9 13 12 11 9 5 8 9 3 8 24 5 24 34 21 24 22 15 22 23 23 19 20 14 14 18 19 18 15 15 18 12 12 20 18 13 11 8 7 4
19 17 17 11 10 12 14 13 10 6 5 2 7 5 11 19 26 20 25 25 20 24 25 23 23 22 21 19 16 18 17 9 9 11 13 16 15 13 14 21 17 12 13 9 8
18 15 12 12 8 15 14 11 5 5 9 3 7 4 9 14 18 24 21 25 22 21 24 23 26 22 22 19 17 20 16 8 10 11 14 18 17 3 16 21 20 16 14 12 8
15 12 8 8 10 11 12 6 5 9 4 15 13 17 18 13 17 21 26 21 28 28 17 20 19 27 15 16 17 18 17 12 17 12 14 18 16 12 16 18 20 18 16 15 13
14 8 6 2 7 6 7 6 4 4 14 11 14 16 17 16 15 19 25 25 26 27 24 19 23 23 18 17 23 17 19 19 20 20 11 11 16 14 18 20 21 21 20 16 15
12 12 5 7 5 7 5 8 11 13 16 13 14 13 18 21 19 18 23 27 25 28 28 24 14 22 23 17 23 23 15 15 13 17 16 9 20 13 21 21 21 21 20 19 16
8 4 6 6 4 5 7 12 15 13 12 17 14 18 22 20 19 21 26 22 24 27 27 24 18 15 20 19 20 17 20 14 13 11 14 6 6 13 23 22 22 22 19 17 16
9 4 7 6 6 5 8 11 10 15 14 18 20 18 20 21 18 26 28 25 25 26 28 28 9 14 21 18 21 20 19 18 10 12 10 4 5 17 16 6 21 15 19 16 15
5 4 4 3 5 5 10 14 17 13 16 19 19 22 22 21 16 22 25 24 25 26 25 22 15 11 17 16 19 20 21 18 11 10 8 9 6 15 21 17 6 7 10 15 13
5 3 3 3 6 7 11 14 15 13 17 15 22 21 24 24 16 24 26 29 23 24 23 18 10 13 15 16 18 20 20 17 17 8 10 7 14 20 16 18 16 13 12 14 14
4 3 5 5 6 9 12 15 17 19 18 19 20 24 24 14 13 18 16 21 24 14 16 18 12 16 21 19 22 21 21 19 20 17 12 10 13 21 25 21 16 14 14 15 14
4 4 6 11 11 11 11 12 16 17 16 15 19 20 21 8 11 23 24 15 13 19 13 13 9 14 17 15 17 22 21 21 20 15 13 13 20 19 20 11 12 7 3 11 12
3 7 4 5 7 9 9 13 13 16 19 13 15 14 17 12 13 16 18 18 22 19 15 11 10 11 16 23 22 19 22 22 15 14 16 17 16 25 20 15 15 12 13 10 10
Wind_Direction
342 343 342 338 335 339 333 332 337 337 334 333 332 332 333 331 329 302 263 347 252 272 192 207 223 244 247 263 263 273 278 299 32 138 231 22 103 114 124 114 85 66 111 138 148
330 336 341 339 333 331 333 329 332 333 333 331 331 330 329 330 323 284 190 305 252 207 212 214 214 228 239 259 249 249 271 36 3 186 194 100 62 77 268 123 109 98 113 132 153
320 324 328 331 326 328 327 327 326 329 329 329 330 329 325 327 294 87 102 166 221 196 247 275 240 226 243 249 251 254 267 316 197 37 354 23 42 27 65 99 128 120 127 144 157
320 319 319 322 322 317 319 321 320 321 322 325 329 330 325 318 339 104 94 131 179 193 258 262 244 246 240 244 248 246 266 294 4 111 324 354 348 88 86 74 106 120 134 150 163
330 327 324 318 316 318 313 314 317 315 315 319 326 331 339 302 274 129 137 167 185 201 242 241 232 237 241 248 254 245 253 264 261 234 278 333 262 63 103 105 106 119 135 152 166
336 335 334 329 323 317 313 307 308 311 308 312 320 325 285 277 75 157 165 174 225 221 246 241 243 257 261 253 263 255 240 267 256 238 239 268 266 185 103 112 121 136 136 150 161
343 338 333 328 327 318 312 307 301 299 300 305 311 307 270 252 267 225 219 212 225 247 250 254 262 257 268 276 263 279 273 261 258 238 231 246 268 189 141 135 140 130 141 141 158
347 343 336 332 326 320 315 307 300 292 296 300 293 239 256 243 249 253 223 226 233 250 259 274 258 267 261 261 272 268 254 256 235 235 223 239 317 131 151 146 150 142 133 150 158
346 342 339 332 328 322 318 307 293 286 284 280 266 216 255 221 221 221 213 226 224 230 242 263 265 244 239 243 253 244 240 230 257 199 223 210 129 104 202 179 147 140 148 158 163
345 340 337 334 330 325 313 307 294 289 275 235 257 246 243 234 213 222 221 228 224 220 224 225 240 232 236 217 229 218 228 251 227 213 205 217 170 191 169 176 168 144 160 163 168
341 341 337 336 332 327 324 330 192 175 219 233 206 224 292 212 112 196 198 216 223 214 223 213 225 224 227 228 233 263 217 218 251 216 187 225 217 168 155 172 126 163 156 164 168
339 338 337 334 327 325 313 301 27 321 290 254 254 256 259 265 203 216 204 209 216 216 216 234 227 236 234 238 230 248 263 252 230 176 172 187 236 184 132 107 78 14 336 159 164
339 336 338 335 320 301 292 5 328 330 277 270 224 234 226 244 225 222 200 208 214 220 222 226 228 224 245 235 245 226 247 251 259 144 136 236 252 159 139 132 115 84 317 44 266
337 335 340 339 307 335 6 334 323 331 278 253 193 221 223 225 238 233 212 208 229 226 231 238 239 245 217 244 230 243 229 255 253 245 202 190 234 237 171 159 152 145 126 85 48
336 333 336 337 307 1 339 319 319 280 290 90 117 73 199 210 232 208 225 208 224 222 218 232 243 240 245 230 234 231 243 219 246 253 254 194 219 261 188 154 159 127 127 109 91
334 332 335 14 264 335 324 315 283 232 239 151 132 212 229 207 228 259 201 234 223 237 241 242 225 229 247 244 206 239 246 290 215 241 241 244 251 241 157 165 138 141 105 92 85
334 327 317 307 315 327 326 284 235 257 26 338 351 219 229 244 219 226 211 212 219 220 230 231 240 222 228 211 231 227 228 206 220 228 236 224 227 173 117 127 139 129 122 121 110
328 309 295 271 308 320 301 259 258 316 327 353 334 330 307 265 247 216 238 209 219 227 223 224 220 230 198 214 217 213 223 220 209 215 228 225 211 147 116 115 123 123 127 122 117
324 300 253 36 332 315 284 244 281 356 343 355 324 288 278 280 276 229 227 237 218 220 230 223 230 214 192 216 232 195 219 229 263 290 276 205 88 117 140 141 136 141 136 131 124
328 301 79 344 337 282 265 260 305 322 315 313 293 305 293 296 294 264 243 231 227 216 232 245 241 223 200 205 229 240 198 227 240 257 269 185 156 163 169 162 149 145 136 131 128
294 252 87 346 308 256 257 290 308 308 326 296 294 279 286 285 304 302 300 234 225 226 215 240 249 236 202 197 217 217 232 211 239 248 256 154 186 201 164 160 157 148 132 128 125
289 269 78 347 272 241 263 284 310 303 298 289 288 269 277 288 297 300 291 287 218 212 213 229 242 252 238 190 211 226 224 228 222 234 266 118 149 86 131 279 114 118 130 124 125
274 314 118 321 274 305 330 318 310 284 291 290 278 274 268 271 285 277 281 276 280 201 215 212 224 241 255 197 206 226 216 224 219 254 283 273 146 99 92 108 104 124 131 123 132
286 279 151 218 273 284 302 303 300 303 294 281 285 280 276 260 264 273 295 296 300 253 198 200 200 225 228 202 196 214 227 214 227 232 234 234 144 128 121 136 159 158 159 147 122
269 2 21 296 302 334 318 311 301 296 294 293 283 261 255 271 286 291 301 329 326 197 185 188 220 221 248 286 201 200 215 219 215 213 227 240 142 155 137 131 150 178 156 123 123
299 337 344 298 309 304 291 278 276 295 288 287 292 279 276 225 264 295 304 345 308 336 191 177 215 231 249 250 223 198 198 228 205 190 213 181 84 106 105 107 101 117 202 113 103
262 302 277 285 276 287 303 315 305 294 299 268 284 261 278 287 215 276 287 296 288 300 316 192 199 222 246 217 226 203 192 206 199 215 217 225 126 121 131 153 150 163 111 118 119